Location: Oshawa
(43.9000°N, 78.8670°W)
Time: 14:29:08
(UTC-05:00)

Cosmos 1408 Rocket - Visible Passes

Search period start: 18 December 2014 00:00
Search period end: 28 December 2014 00:00
Orbit: 602 x 633 km, 82.6° (Epoch: 18 December)

Date Brightness Start Highest point End Pass type
(mag) Time Alt. Az. Time Alt. Az. Time Alt. Az.
18 Dec 6.4 04:52:12 10° NNE 04:54:38 15° ENE 04:57:03 10° ESE visible
18 Dec 3.6 06:28:36 10° NNW 06:32:50 53° W 06:37:00 10° S visible
18 Dec 3.8 19:00:32 10° S 19:04:16 63° S 19:04:16 63° S visible
19 Dec 5.7 05:08:09 10° NNE 05:11:45 25° ENE 05:15:19 10° SE visible
19 Dec 4.4 06:45:49 10° NNW 06:49:34 29° W 06:53:15 10° SSW visible
19 Dec 5.1 17:41:54 10° ESE 17:44:30 16° E 17:44:54 15° ENE visible
19 Dec 4.4 19:17:34 10° SSW 19:21:53 50° WNW 19:22:06 49° WNW visible
20 Dec 4.6 05:25:24 15° N 05:28:46 44° ENE 05:32:53 10° SSE visible
20 Dec 5.1 07:03:31 10° NW 07:06:12 16° W 07:08:52 10° SW visible
20 Dec 4.5 17:57:25 10° SSE 18:01:08 27° E 18:02:41 22° ENE visible
20 Dec 5.5 19:35:03 10° SW 19:38:53 28° WNW 19:39:52 26° NW visible
21 Dec 3.5 05:43:01 23° N 05:45:41 83° E 05:49:59 10° S visible
21 Dec 3.7 18:13:36 10° SSE 18:17:52 48° E 18:20:23 23° NNE visible
21 Dec 6.3 19:53:09 10° WSW 19:55:59 17° WNW 19:57:33 14° NW visible
22 Dec 6.3 04:23:32 14° NE 04:24:19 15° ENE 04:26:44 10° ESE visible
22 Dec 3.6 06:00:43 31° NNW 06:02:30 52° W 06:06:40 10° S visible
22 Dec 3.5 18:30:14 10° S 18:34:41 90° E 18:38:00 18° N visible
23 Dec 5.6 04:41:17 25° ENE 04:41:26 25° ENE 04:45:00 10° SE visible
23 Dec 4.3 06:18:28 27° WNW 06:19:14 29° W 06:22:55 10° SSW visible
23 Dec 5.2 17:11:36 10° ESE 17:14:12 16° E 17:16:47 10° NE visible
23 Dec 4.4 18:47:17 10° SSW 18:51:35 49° WNW 18:55:33 12° N visible
24 Dec 4.7 04:59:05 41° ESE 04:59:05 41° ESE 05:02:33 10° SSE visible
24 Dec 5.1 06:36:17 16° W 06:36:17 16° W 06:38:31 10° WSW visible
24 Dec 4.5 17:27:07 10° SSE 17:30:50 27° E 17:34:32 10° NNE visible
24 Dec 5.5 19:04:46 10° SW 19:08:34 28° WNW 19:12:23 10° NNW visible
25 Dec 4.5 05:16:56 39° SSE 05:16:56 39° SSE 05:19:39 10° S visible
25 Dec 3.8 17:43:18 10° SSE 17:47:33 49° E 17:51:48 10° NNE visible
25 Dec 6.3 19:22:53 10° WSW 19:25:40 16° WNW 19:28:28 10° NNW visible
26 Dec 5.2 05:34:48 21° SSW 05:34:48 21° SSW 05:36:20 10° S visible
26 Dec 3.5 17:59:56 10° S 18:04:22 90° E 18:08:46 10° N visible
27 Dec 4.5 18:16:59 10° SSW 18:21:15 49° WNW 18:25:32 10° N visible
